Temp
70 72 74 74 65 62 57 59 61 62 64 69 67 65 66 66 65 62 73 74 74 76 78 77 73 74 74 75 75 76 76 76 76 76 75 75 75 75 76 76 76 76 77 77 76 76 75 74 73
72 73 73 66 61 57 59 59 60 66 70 67 66 66 64 65 68 69 71 73 74 77 78 78 72 73 74 74 75 75 76 76 76 75 75 75 75 75 76 75 75 76 76 76 76 75 74 73 72
74 73 71 62 55 57 58 61 66 67 69 66 66 67 67 67 69 70 72 72 73 76 77 77 72 73 73 74 75 75 75 75 75 75 75 75 75 75 75 75 75 75 76 76 76 75 73 71 70
74 73 65 61 55 59 61 67 65 65 66 65 65 64 69 73 71 71 72 72 72 70 75 73 71 72 73 74 74 75 74 74 74 74 74 75 75 75 75 74 75 75 76 76 75 73 71 70 69
70 68 60 56 55 60 63 65 65 65 65 64 64 65 66 71 73 71 69 72 71 70 67 70 70 72 73 74 74 74 73 73 73 73 74 74 75 74 74 74 74 75 75 75 73 72 70 69 69
67 65 57 55 56 61 65 66 66 64 65 64 62 63 67 69 70 67 68 70 71 70 67 65 70 72 73 73 73 72 72 72 73 73 73 74 73 73 73 73 73 73 73 72 71 70 69 69 68
65 62 56 54 56 58 64 67 65 67 66 65 67 62 69 67 67 66 67 68 68 69 67 65 66 68 69 68 70 71 71 71 72 72 72 72 72 72 72 72 72 72 71 71 70 69 69 68 68
65 64 53 55 56 59 67 67 68 67 69 65 69 65 66 66 66 67 66 65 66 65 67 66 66 66 69 68 70 69 70 70 71 71 70 70 70 71 71 70 71 70 70 70 70 69 68 67 67
66 60 55 57 55 63 67 65 67 68 66 64 66 66 68 66 66 66 66 65 66 65 64 65 65 69 71 69 71 67 69 70 69 70 69 69 75 75 74 72 69 70 69 69 69 68 67 66 66
65 58 58 63 64 65 68 64 67 65 63 65 65 68 66 65 64 64 64 64 64 64 64 64 67 66 65 66 68 67 72 74 73 73 72 74 73 75 75 71 69 69 69 69 68 67 66 69 73
61 60 61 65 67 67 66 66 68 65 65 68 69 68 64 62 64 64 64 64 62 65 65 65 66 66 65 64 65 65 64 68 68 73 70 70 71 72 75 74 73 72 70 73 72 70 73 71 72
59 63 64 68 67 65 65 68 65 65 72 67 69 67 64 64 64 64 64 64 62 61 65 64 65 64 66 64 65 64 64 64 68 71 70 66 68 71 72 73 72 71 73 72 71 70 69 68 69
59 63 65 67 66 66 66 66 66 65 69 67 66 64 64 65 64 64 64 63 62 62 62 64 64 64 64 63 63 64 64 64 66 67 69 67 69 69 72 70 72 71 70 69 70 70 69 68 67
64 63 66 66 66 66 65 66 63 71 67 63 62 62 64 63 64 64 65 62 61 61 61 62 62 63 62 62 63 64 64 66 64 65 66 68 70 68 70 69 70 69 71 71 70 69 69 68 68
64 59 62 63 66 64 66 60 60 69 64 62 60 59 62 63 64 65 64 61 61 60 60 60 62 62 60 61 63 63 63 63 65 65 66 67 68 68 69 68 68 70 68 66 68 67 67 67 68
59 57 54 60 63 65 64 59 66 65 63 63 62 60 61 62 63 65 62 60 61 59 59 60 62 60 60 60 62 62 62 63 64 64 64 65 67 68 67 68 69 69 67 68 66 66 66 66 67
53 51 51 57 63 63 62 60 66 61 62 63 61 61 61 61 60 63 62 60 60 60 59 58 61 59 58 59 61 62 62 62 63 63 62 63 66 67 66 67 67 67 67 65 66 65 66 64 67
49 49 49 53 60 60 59 60 66 65 62 63 62 61 60 60 60 62 60 60 59 59 58 58 58 60 59 60 59 61 61 61 62 62 62 64 65 66 65 65 66 67 67 65 66 64 65 66 65
54 52 51 55 60 58 59 58 63 68 62 60 60 60 59 59 62 62 60 59 58 58 58 58 57 58 58 58 58 59 59 59 60 61 62 64 65 65 64 66 65 66 66 66 64 64 62 62 63
55 52 51 56 60 57 58 58 65 65 65 64 61 60 61 59 59 60 59 58 57 57 59 58 58 57 59 61 59 59 60 60 60 62 63 63 64 64 63 65 64 66 65 64 63 63 59 61 61
52 50 51 51 56 58 56 55 60 64 62 61 60 62 62 59 58 60 58 57 57 57 58 58 58 58 59 60 59 57 57 57 61 62 62 66 66 62 63 65 64 63 65 64 62 61 62 60 60
48 56 55 53 51 46 56 45 55 63 64 63 60 58 59 59 60 61 61 58 57 58 59 59 59 58 58 60 61 59 58 58 61 63 63 62 64 62 62 63 64 64 64 63 63 62 61 63 61
52 57 55 54 49 49 51 47 54 56 59 64 67 59 59 60 60 60 62 62 60 60 59 59 59 59 60 61 60 61 59 61 58 60 63 60 60 60 60 62 62 64 65 64 62 61 61 61 62
59 55 54 51 49 40 47 49 51 55 60 65 66 63 60 59 60 61 63 63 61 60 60 59 58 58 58 58 61 62 60 60 61 60 59 60 61 61 62 62 62 65 66 64 62 61 60 60 59
55 51 41 38 37 39 49 46 53 59 64 65 67 68 60 61 60 60 60 60 59 58 59 59 59 58 58 58 59 60 61 62 63 64 64 61 62 64 64 65 65 66 65 65 65 63 61 60 60
50 50 42 34 36 42 46 43 53 63 67 66 66 67 63 60 60 61 61 60 59 58 59 59 59 60 60 59 60 61 62 63 64 65 66 65 66 66 66 65 66 66 66 65 64 63 62 61 57
50 45 55 45 42 40 46 49 58 63 64 64 67 65 64 60 60 62 61 60 60 57 57 57 58 59 60 60 60 60 61 62 63 64 64 64 65 66 65 66 65 66 65 65 64 63 63 62 60
55 56 43 44 35 35 42 44 50 57 63 66 66 66 64 61 60 62 62 61 61 60 58 57 58 57 59 61 61 61 61 62 63 62 62 63 64 65 65 65 65 65 65 64 63 62 63 59 59
50 49 50 49 43 39 37 44 56 59 65 63 67 65 65 63 62 62 63 63 63 62 60 58 57 59 60 61 61 61 61 61 62 62 62 63 64 65 64 65 65 64 64 62 60 59 59 54 54
55 50 51 42 41 42 42 46 60 61 63 62 65 66 66 66 64 63 64 63 62 62 61 61 60 60 61 62 62 61 61 60 61 61 62 63 63 64 64 64 65 64 62 58 55 54 55 53 53
MSLP
1012.89 1013.06 1012.91 1012.87 1013.50 1012.90 1012.38 1012.31 1012.13 1011.76 1011.57 1011.27 1011.41 1011.48 1011.08 1010.76 1010.38 1010.31 1010.15 1010.33 1010.15 1010.44 1010.56 1010.71 1010.77 1010.80 1011.05 1011.74 1012.08 1012.10 1012.60 1013.19 1013.65 1014.15 1014.20 1014.70 1015.71 1016.22 1016.86 1016.94 1017.69 1017.97 1018.38 1018.95 1019.52 1019.81 1020.30 1020.85 1021.01
1012.86 1012.87 1012.82 1013.10 1013.20 1012.50 1012.23 1012.09 1011.55 1011.12 1011.01 1011.32 1011.35 1011.32 1011.24 1010.44 1010.39 1010.35 1010.49 1010.43 1010.36 1010.07 1010.31 1010.47 1010.66 1010.60 1010.73 1011.35 1011.94 1011.94 1012.25 1012.93 1013.66 1014.26 1014.73 1015.11 1015.87 1016.62 1016.96 1017.10 1018.14 1018.44 1018.95 1019.28 1019.70 1020.07 1020.85 1021.35 1021.60
1012.77 1012.82 1012.80 1013.33 1013.38 1012.46 1011.94 1011.53 1011.10 1010.81 1011.05 1011.23 1011.22 1011.31 1010.97 1010.16 1010.32 1010.28 1010.58 1010.45 1010.45 1010.09 1009.86 1010.12 1010.65 1010.68 1011.17 1011.06 1011.77 1011.83 1012.26 1013.07 1013.30 1014.02 1014.89 1015.58 1016.29 1016.87 1017.06 1017.66 1018.56 1018.84 1019.32 1019.55 1020.00 1020.67 1021.18 1021.46 1021.83
1012.80 1013.05 1013.90 1013.33 1013.04 1012.51 1011.89 1011.12 1011.24 1010.88 1010.95 1011.42 1011.40 1011.06 1010.72 1009.97 1010.05 1010.19 1010.44 1010.51 1010.36 1009.99 1009.33 1008.77 1009.23 1010.32 1010.91 1011.44 1011.91 1011.85 1012.53 1013.28 1013.57 1013.92 1014.63 1015.71 1016.56 1016.94 1017.61 1018.21 1018.73 1019.16 1019.59 1019.80 1020.38 1020.89 1021.34 1021.76 1022.21
1013.06 1013.12 1013.13 1013.05 1012.73 1012.25 1011.69 1011.34 1011.26 1011.03 1011.08 1011.18 1011.35 1010.81 1010.39 1009.80 1010.09 1010.26 1010.30 1010.44 1010.11 1009.67 1009.92 1008.04 1009.29 1009.72 1010.43 1010.70 1011.58 1012.12 1012.61 1013.28 1013.67 1013.84 1014.63 1015.60 1016.59 1017.12 1017.82 1018.35 1018.91 1019.35 1019.77 1020.27 1020.68 1021.28 1021.63 1022.05 1022.72
1012.85 1013.27 1012.98 1012.61 1012.23 1011.77 1011.34 1011.04 1011.01 1010.82 1010.76 1010.94 1011.19 1011.02 1010.04 1010.01 1010.20 1010.22 1010.40 1010.17 1010.01 1009.90 1009.60 1008.18 1009.07 1009.77 1011.24 1011.90 1011.76 1012.41 1012.67 1013.13 1013.88 1014.18 1014.18 1015.71 1016.46 1017.25 1017.95 1018.34 1018.98 1019.53 1020.09 1020.54 1020.97 1021.43 1021.88 1022.40 1023.02
1012.36 1012.78 1012.68 1012.48 1011.93 1011.49 1010.70 1010.48 1010.57 1010.26 1010.31 1010.28 1010.38 1010.60 1009.91 1010.11 1010.38 1010.42 1010.51 1010.25 1010.17 1010.63 1010.87 1010.16 1010.35 1011.57 1012.30 1012.76 1012.75 1012.43 1012.97 1013.28 1013.79 1014.50 1014.83 1015.55 1016.45 1017.41 1017.98 1018.67 1019.28 1019.88 1020.48 1020.79 1021.11 1021.59 1022.11 1022.68 1023.18
1012.48 1012.52 1012.56 1012.30 1011.74 1010.92 1010.36 1010.06 1009.76 1009.99 1009.73 1010.34 1010.21 1009.89 1009.69 1010.26 1010.48 1010.49 1010.51 1010.29 1010.14 1011.16 1011.95 1012.15 1011.70 1011.82 1012.51 1012.74 1012.68 1012.52 1013.14 1013.44 1013.86 1014.17 1015.31 1015.93 1016.35 1017.37 1018.33 1018.87 1019.70 1020.16 1020.66 1021.05 1021.36 1021.80 1022.36 1022.95 1023.52
1012.33 1012.19 1011.90 1011.67 1011.52 1010.38 1010.14 1010.04 1009.67 1009.68 1009.78 1010.04 1009.76 1009.56 1009.77 1010.42 1010.62 1010.38 1010.29 1010.34 1010.04 1010.66 1011.43 1012.19 1012.19 1012.15 1012.25 1012.52 1012.68 1012.98 1013.30 1013.55 1013.84 1014.51 1015.69 1016.15 1016.75 1017.39 1018.37 1019.21 1020.09 1020.44 1021.01 1021.36 1021.61 1022.20 1022.71 1023.27 1023.78
1011.75 1011.63 1011.13 1010.80 1010.51 1010.04 1009.70 1009.94 1009.45 1009.45 1009.51 1009.14 1009.15 1009.27 1009.83 1010.36 1010.59 1010.45 1010.46 1010.44 1010.53 1010.39 1010.75 1011.29 1011.97 1012.22 1012.35 1012.53 1012.62 1013.05 1014.12 1013.89 1013.78 1014.46 1015.60 1016.23 1017.29 1017.33 1018.52 1019.83 1020.39 1020.88 1021.31 1021.64 1022.05 1022.38 1023.09 1023.26 1023.73
1011.48 1010.68 1010.51 1010.07 1009.98 1009.94 1009.58 1009.31 1009.13 1008.97 1008.64 1008.25 1008.36 1008.75 1009.56 1010.26 1010.47 1010.43 1010.55 1010.60 1010.84 1010.76 1010.63 1011.10 1011.61 1011.66 1012.27 1012.78 1013.00 1013.62 1014.39 1014.17 1014.08 1014.27 1015.53 1016.14 1017.64 1018.11 1018.77 1019.81 1020.52 1021.10 1021.42 1021.78 1022.22 1022.91 1022.97 1023.28 1023.39
1011.13 1010.38 1010.07 1009.44 1009.46 1009.68 1009.25 1008.84 1008.79 1008.71 1007.62 1008.14 1008.40 1008.80 1009.45 1009.80 1010.00 1010.21 1010.46 1010.65 1010.89 1011.09 1010.86 1010.92 1011.16 1011.42 1012.01 1012.81 1012.60 1012.76 1013.41 1014.83 1014.48 1014.08 1015.60 1016.12 1017.71 1018.18 1018.66 1019.48 1020.31 1020.79 1021.34 1021.76 1022.46 1022.86 1023.25 1023.47 1023.54
1010.58 1009.96 1009.67 1009.21 1009.13 1009.20 1009.04 1008.45 1008.41 1007.75 1007.57 1007.99 1008.52 1008.94 1009.48 1009.54 1009.88 1010.27 1010.33 1010.62 1010.92 1011.04 1011.16 1011.12 1011.31 1011.43 1011.80 1012.38 1012.66 1012.64 1013.09 1013.69 1014.81 1014.73 1015.45 1015.81 1017.42 1018.28 1018.75 1019.47 1020.09 1020.87 1021.31 1021.92 1022.33 1022.86 1023.49 1023.16 1023.84
1009.69 1009.54 1009.19 1008.99 1008.66 1008.57 1008.48 1007.91 1008.32 1006.65 1007.36 1008.05 1008.62 1009.10 1009.59 1009.56 1009.81 1010.14 1010.16 1010.58 1010.82 1011.04 1011.20 1011.09 1011.34 1011.31 1011.14 1011.10 1011.29 1011.77 1012.30 1013.19 1014.49 1014.96 1015.22 1015.73 1017.51 1018.32 1018.80 1019.43 1019.98 1020.97 1021.17 1022.06 1022.04 1022.62 1023.24 1023.70 1023.91
1009.45 1009.45 1009.03 1008.58 1008.20 1007.94 1007.63 1007.80 1007.46 1006.93 1007.60 1008.19 1008.79 1009.61 1009.80 1009.67 1009.81 1010.05 1010.10 1010.53 1010.94 1010.91 1011.16 1011.20 1011.38 1011.32 1010.72 1009.24 1008.89 1010.34 1012.12 1012.93 1014.02 1014.61 1015.39 1015.80 1017.54 1018.26 1018.84 1019.46 1020.07 1020.84 1021.25 1022.18 1022.48 1023.08 1023.49 1023.72 1024.03
1009.76 1009.57 1008.87 1008.18 1007.80 1007.48 1007.84 1006.55 1006.44 1006.94 1007.53 1007.69 1008.33 1009.27 1009.69 1009.86 1009.83 1010.27 1010.42 1010.64 1010.99 1010.93 1011.06 1011.19 1011.37 1011.21 1010.76 1009.72 1009.26 1010.26 1011.75 1012.84 1013.84 1014.59 1015.38 1016.43 1017.33 1018.00 1018.72 1019.55 1019.94 1020.89 1021.41 1021.77 1022.23 1023.03 1023.70 1023.86 1024.17
1009.80 1008.91 1008.76 1007.93 1007.59 1007.29 1007.51 1006.45 1006.34 1007.12 1007.28 1007.45 1008.00 1008.58 1009.19 1009.68 1010.07 1010.39 1010.62 1010.83 1011.13 1011.11 1010.91 1011.16 1011.46 1011.57 1011.23 1010.88 1010.91 1010.95 1012.04 1013.02 1014.03 1014.96 1015.80 1016.67 1017.12 1018.03 1018.73 1019.53 1020.35 1021.00 1021.60 1021.93 1021.93 1023.03 1023.26 1023.77 1024.01
1008.79 1008.90 1008.70 1007.76 1007.66 1007.05 1007.08 1006.42 1005.93 1006.53 1006.67 1006.85 1007.42 1008.12 1008.63 1009.27 1009.87 1010.31 1010.77 1010.94 1011.13 1011.28 1011.26 1011.41 1011.70 1011.96 1011.94 1011.95 1012.09 1012.33 1013.10 1013.82 1014.56 1015.49 1016.17 1016.65 1017.16 1017.94 1018.89 1019.67 1020.40 1021.00 1021.54 1022.02 1021.95 1022.79 1023.37 1023.58 1023.82
1008.84 1008.43 1008.06 1007.54 1007.51 1007.18 1006.33 1006.32 1005.54 1005.23 1005.95 1006.39 1006.91 1007.55 1008.15 1008.76 1009.64 1010.16 1010.65 1010.96 1011.14 1011.43 1011.41 1011.60 1011.86 1012.05 1012.34 1012.67 1012.82 1013.19 1013.70 1014.75 1015.62 1015.99 1016.21 1016.72 1017.27 1017.86 1018.81 1019.48 1020.34 1020.90 1021.57 1021.48 1021.75 1022.89 1023.33 1023.84 1024.16
1008.57 1008.33 1007.87 1007.46 1007.36 1007.41 1006.13 1005.72 1004.94 1004.82 1004.82 1005.32 1006.01 1006.80 1007.59 1008.32 1009.18 1009.77 1010.35 1010.67 1010.93 1011.32 1011.56 1011.62 1011.96 1012.29 1012.57 1012.93 1013.41 1013.78 1014.34 1014.97 1015.36 1015.92 1016.56 1016.89 1017.23 1017.75 1018.77 1019.21 1020.04 1020.66 1021.32 1021.60 1021.82 1022.29 1023.15 1023.67 1023.99
1007.95 1007.98 1007.62 1007.50 1007.60 1007.20 1006.38 1005.39 1004.75 1004.41 1004.64 1004.83 1005.44 1005.98 1006.96 1007.36 1008.40 1009.14 1009.90 1010.22 1010.52 1011.04 1011.61 1011.63 1011.88 1012.35 1012.69 1013.04 1013.62 1014.00 1014.70 1015.23 1015.76 1016.21 1016.32 1016.46 1016.89 1017.77 1018.80 1019.56 1019.79 1020.55 1020.77 1021.21 1021.56 1022.17 1022.49 1022.97 1023.67
1007.10 1007.17 1007.52 1007.50 1007.94 1007.21 1006.68 1004.97 1004.69 1004.26 1003.82 1003.89 1004.53 1005.37 1006.16 1006.65 1007.94 1008.51 1009.08 1009.69 1010.07 1010.59 1011.12 1011.68 1012.01 1012.45 1012.70 1013.09 1013.40 1013.82 1014.19 1014.64 1015.08 1015.37 1015.97 1016.37 1016.98 1017.91 1018.64 1019.32 1019.77 1019.98 1020.61 1021.01 1021.29 1021.69 1022.15 1022.51 1022.72
1006.45 1006.96 1007.15 1007.21 1007.64 1007.58 1006.62 1005.92 1003.93 1003.96 1003.33 1002.74 1003.02 1004.36 1005.35 1005.73 1007.08 1007.86 1008.51 1009.02 1009.64 1010.28 1010.84 1011.44 1012.08 1012.49 1012.77 1013.09 1013.31 1013.62 1014.26 1014.83 1015.02 1015.47 1016.15 1016.42 1016.89 1017.57 1018.15 1019.28 1019.87 1020.17 1020.09 1020.30 1021.00 1021.41 1021.92 1022.05 1022.18
1006.36 1006.81 1007.17 1007.31 1007.59 1006.94 1006.17 1005.71 1003.24 1002.96 1002.35 1001.95 1002.10 1003.13 1004.33 1004.98 1006.42 1007.29 1008.23 1008.90 1009.30 1009.99 1010.54 1011.06 1011.66 1012.19 1012.65 1013.09 1013.34 1013.68 1014.03 1014.58 1014.91 1015.55 1016.03 1016.14 1016.64 1017.46 1018.36 1018.68 1018.85 1019.04 1019.35 1019.97 1020.40 1020.71 1021.23 1021.37 1021.80
1006.21 1006.57 1006.93 1007.20 1007.20 1005.76 1005.41 1005.03 1002.92 1002.14 1001.65 1001.50 1001.43 1002.10 1003.45 1004.20 1005.58 1006.45 1007.36 1008.08 1008.75 1009.39 1010.03 1010.61 1011.18 1011.79 1012.43 1012.85 1013.33 1013.81 1014.01 1014.44 1014.74 1015.10 1015.57 1016.12 1016.73 1017.29 1017.71 1018.26 1018.64 1018.78 1018.82 1019.09 1019.60 1020.05 1020.50 1020.65 1020.81
1005.57 1005.86 1005.83 1005.93 1006.01 1005.42 1005.45 1003.89 1002.25 1001.19 1000.95 1001.09 1001.12 1001.35 1002.60 1003.60 1004.32 1005.34 1006.26 1007.27 1007.84 1008.61 1009.28 1010.01 1010.60 1011.12 1011.80 1012.21 1012.91 1013.57 1013.85 1014.25 1014.60 1014.96 1015.39 1015.78 1016.02 1016.57 1016.92 1017.45 1017.74 1017.92 1018.19 1018.52 1018.88 1019.26 1019.47 1019.67 1019.88
1005.19 1005.41 1005.45 1005.62 1005.82 1005.61 1004.37 1003.45 1001.93 1000.79 1000.35 1000.67 1000.64 1000.72 1001.69 1002.73 1003.30 1004.21 1005.40 1006.38 1007.07 1007.73 1008.52 1009.37 1010.03 1010.60 1011.14 1011.56 1012.35 1012.98 1013.38 1013.81 1014.08 1014.66 1015.17 1015.49 1015.72 1016.13 1016.31 1016.37 1016.88 1017.32 1017.84 1018.08 1018.23 1018.49 1018.48 1018.79 1018.94
1004.51 1004.93 1005.63 1005.86 1005.36 1004.70 1003.59 1002.99 1001.60 1000.63 1000.06 999.93 1000.12 1000.30 1000.88 1002.03 1003.05 1003.73 1004.58 1005.42 1006.20 1006.86 1007.96 1008.88 1009.43 1009.93 1010.51 1011.10 1011.84 1012.20 1012.74 1013.20 1013.65 1014.12 1014.53 1014.76 1015.27 1015.64 1015.78 1016.09 1016.35 1016.99 1017.19 1017.24 1017.60 1017.56 1017.68 1018.10 1018.23
1004.86 1004.76 1005.02 1005.09 1004.90 1003.99 1003.05 1001.90 1000.92 1000.10 999.65 999.67 999.43 999.82 1000.15 1001.29 1002.07 1002.68 1003.83 1004.78 1005.75 1006.29 1006.83 1007.76 1008.65 1009.12 1009.65 1010.20 1010.85 1011.53 1012.00 1012.45 1012.92 1013.14 1013.52 1013.87 1014.61 1014.81 1015.17 1015.30 1015.60 1015.89 1016.15 1016.42 1016.77 1016.91 1017.15 1017.50 1017.49
1005.10 1004.98 1005.07 1005.01 1004.55 1004.25 1003.13 1000.93 1000.19 999.71 999.50 999.58 999.32 999.32 999.80 1000.37 1001.38 1001.90 1003.00 1004.09 1004.97 1005.50 1005.88 1006.55 1007.44 1007.86 1008.43 1009.16 1009.90 1010.53 1011.07 1011.52 1011.80 1012.25 1012.46 1012.98 1013.52 1014.06 1014.20 1014.29 1014.63 1014.97 1015.25 1015.58 1015.96 1016.10 1016.09 1016.01 1015.99
Wind_Speed
4 3 2 3 2 1 0 3 2 3 3 4 2 4 4 4 5 5 3 7 8 8 14 15 13 16 15 16 20 25 26 26 25 24 26 25 23 22 23 24 23 23 24 25 24 24 23 22 22
4 2 3 3 1 1 1 2 7 7 4 1 2 3 3 5 4 5 3 5 7 12 15 16 16 18 21 21 22 26 27 27 26 24 23 24 23 23 24 25 23 24 24 26 25 25 23 22 21
3 3 2 3 2 1 3 5 8 4 5 3 3 2 2 4 1 1 1 4 6 12 16 16 15 19 19 22 23 26 27 27 27 26 24 24 23 24 25 24 23 24 24 26 25 24 23 21 19
1 1 4 1 3 4 4 5 4 6 2 3 1 5 4 4 4 2 1 6 8 8 16 21 23 21 20 20 22 25 26 25 26 27 26 24 24 24 24 23 23 23 24 24 24 24 22 19 19
3 1 3 1 3 4 6 6 3 4 4 3 5 4 6 2 4 3 3 4 11 10 5 16 20 23 23 25 24 24 25 24 25 29 27 26 25 25 23 22 22 21 21 21 21 22 21 20 18
3 1 2 3 4 4 6 6 3 4 5 3 4 5 6 0 3 3 3 6 7 7 5 9 9 17 19 18 23 23 24 25 24 25 30 26 25 24 22 21 20 19 19 20 21 21 20 19 18
4 3 2 3 4 4 5 4 4 4 5 7 3 4 3 2 1 3 2 3 3 0 5 9 6 5 12 10 15 20 22 23 24 23 23 27 24 23 21 19 18 17 15 18 21 21 20 19 19
4 2 4 4 4 5 4 3 3 6 6 2 5 7 4 1 1 0 1 3 3 4 7 7 15 17 13 15 19 18 19 20 23 25 22 22 23 22 20 19 17 16 16 22 23 21 20 20 17
4 2 4 4 7 4 2 4 2 0 4 4 8 5 1 5 2 2 2 2 5 3 6 10 7 12 12 13 11 6 19 23 23 22 21 20 14 20 21 17 16 17 19 22 22 21 19 18 17
4 4 9 6 6 4 9 6 5 2 4 7 7 9 5 5 3 3 4 5 4 7 1 3 7 6 3 2 9 9 11 13 14 17 19 13 13 15 16 15 15 16 18 20 20 20 19 16 12
5 7 6 7 12 7 6 5 3 4 9 13 9 3 7 7 7 7 9 7 6 5 5 3 5 6 7 3 5 6 4 3 8 18 14 15 11 12 11 10 9 10 16 11 15 15 10 12 10
5 8 6 5 5 5 6 2 6 9 11 0 6 1 5 8 8 8 8 5 4 4 5 3 3 4 8 7 6 10 10 5 5 12 16 14 8 11 11 9 10 10 9 13 11 8 10 11 11
6 5 5 11 8 7 5 12 10 13 12 5 3 3 5 6 5 4 2 2 6 7 4 5 3 4 6 8 8 13 15 10 7 8 13 14 11 11 12 10 10 8 11 11 11 10 9 11 11
5 5 9 7 10 7 10 10 4 11 4 6 4 3 5 3 3 6 4 2 6 5 5 4 1 3 5 11 19 12 14 16 11 8 11 15 12 11 11 11 11 9 10 9 10 10 9 8 9
2 5 7 8 5 6 9 6 10 6 6 7 6 5 7 5 4 7 5 1 3 4 4 4 3 2 2 9 21 18 14 13 11 10 13 15 14 13 13 10 10 10 9 11 9 9 8 8 8
3 2 6 1 4 1 7 9 6 2 9 12 10 8 8 8 5 7 2 2 3 4 5 3 4 5 5 7 12 13 14 10 9 9 8 13 15 15 12 10 10 10 9 10 8 9 8 7 8
3 9 6 6 3 3 4 8 2 4 9 10 12 10 8 8 5 6 3 3 3 4 5 5 6 5 7 8 8 12 14 8 6 6 7 9 14 14 12 10 10 11 9 8 10 8 8 8 8
8 6 5 7 3 3 6 16 15 7 10 13 12 11 10 10 9 7 3 5 5 5 5 5 5 8 7 6 7 8 9 7 6 5 7 10 9 12 10 8 10 10 8 9 9 10 7 7 7
4 5 6 4 5 3 9 11 17 17 8 11 11 12 12 12 8 6 6 7 7 7 8 7 7 8 7 6 6 6 8 7 6 6 8 9 10 11 10 8 10 9 10 9 11 8 9 5 6
15 13 14 12 9 8 7 13 18 12 9 6 12 14 14 11 10 9 9 8 9 8 8 8 9 6 7 7 3 4 4 4 5 5 8 9 12 11 8 9 9 11 8 10 10 9 5 3 8
16 17 16 15 6 6 7 6 6 3 7 4 7 11 14 15 14 13 12 10 9 10 10 9 11 8 7 9 7 5 5 4 5 8 7 10 11 11 8 11 8 9 9 9 10 8 11 7 8
17 15 13 12 5 8 3 8 7 11 14 9 9 13 15 15 14 14 14 13 12 11 10 11 12 10 8 11 9 13 7 8 5 8 6 7 9 8 9 7 9 9 8 9 10 9 7 7 9
12 8 13 12 9 7 7 7 3 2 10 14 7 13 15 16 17 17 15 13 12 12 12 11 11 10 10 10 11 10 8 6 3 5 10 8 6 7 6 7 8 12 9 9 8 10 12 8 6
2 10 3 2 4 9 10 8 5 5 7 6 4 9 15 17 17 16 14 14 13 11 12 12 13 11 9 8 10 13 11 10 7 6 5 4 6 6 10 9 8 10 11 11 10 11 13 11 10
7 4 2 4 6 7 7 9 13 7 11 11 12 5 12 16 17 17 18 17 17 16 15 13 15 15 13 11 11 11 11 12 13 12 9 9 8 8 10 12 12 10 11 11 11 12 13 13 12
13 14 6 7 5 3 4 7 6 9 8 8 11 9 9 15 17 19 20 17 18 18 17 16 17 18 17 16 15 14 13 9 10 11 9 8 9 10 12 12 13 12 12 11 12 9 10 11 11
6 10 13 6 1 4 4 4 8 7 10 6 8 6 9 14 17 20 20 19 19 19 20 19 18 17 18 17 16 16 14 15 12 13 11 9 10 9 12 12 11 13 14 15 13 10 12 12 13
8 7 5 5 6 11 6 4 6 2 7 7 7 8 5 10 14 15 17 19 17 18 18 17 16 17 17 17 17 15 16 16 15 13 15 15 13 13 12 11 12 13 13 13 13 11 12 12 11
6 12 6 3 5 7 6 5 8 11 11 9 10 5 7 11 14 15 15 15 15 14 16 17 17 19 18 18 17 18 17 18 16 14 15 15 15 15 14 14 14 14 13 12 11 12 12 13 14
3 2 14 10 8 2 5 11 4 10 6 6 10 6 4 8 13 14 13 14 16 16 17 18 18 19 18 18 18 18 16 16 17 18 17 15 16 15 15 15 15 15 12 10 11 12 14 16 15
Wind_Direction
138 128 92 53 234 7 218 220 284 244 236 204 217 218 255 273 235 277 90 205 186 202 189 184 154 143 149 154 150 144 145 140 140 143 139 132 132 131 132 127 128 127 125 123 120 115 114 114 108
129 123 75 94 72 13 331 259 230 229 232 260 219 204 253 269 248 301 272 194 212 185 186 190 165 149 152 152 152 147 145 145 146 139 134 131 132 134 133 127 133 129 129 128 124 119 118 115 111
109 25 94 74 106 260 259 223 258 260 257 229 245 234 255 229 179 260 88 198 210 197 186 189 171 156 155 150 153 149 145 149 142 136 135 134 136 137 131 132 135 132 130 126 124 123 122 116 115
109 70 87 109 225 248 239 270 254 292 228 222 299 259 241 236 175 153 131 179 205 220 198 179 165 159 153 153 155 146 148 149 144 140 138 137 138 135 135 136 137 135 136 130 128 127 124 121 120
54 79 98 130 244 264 253 274 269 278 288 188 182 262 251 197 166 113 73 198 214 231 257 179 163 162 156 154 156 153 149 149 150 144 139 139 141 138 139 141 141 145 136 128 132 133 129 124 122
87 79 155 215 232 242 267 255 251 226 229 172 203 256 251 48 210 46 330 246 234 229 312 350 160 150 160 162 154 156 152 151 151 145 137 141 140 140 143 143 143 136 136 136 136 131 127 125 125
132 141 208 206 256 276 235 171 223 253 249 228 153 233 262 239 47 80 328 298 252 337 127 66 20 344 168 208 193 158 157 151 145 141 140 141 138 143 140 137 131 130 138 143 136 132 130 129 127
118 129 149 225 220 263 239 227 203 231 277 92 173 235 245 136 123 98 3 333 350 55 97 130 178 197 207 194 202 162 160 149 145 140 140 135 134 135 134 129 132 133 139 146 141 134 134 133 128
160 155 213 223 184 244 220 266 178 145 254 222 203 224 304 134 153 340 323 332 324 19 94 140 154 185 201 204 177 189 163 152 139 131 127 131 137 139 141 139 135 138 141 140 136 135 130 126 125
181 194 210 214 207 246 295 250 244 228 228 245 238 225 166 160 192 221 250 282 293 302 286 147 176 174 210 225 167 146 177 162 146 139 141 134 143 137 145 139 127 134 142 137 132 128 130 142 138
178 228 199 231 231 251 264 272 223 219 261 248 248 249 184 201 216 229 235 224 233 254 266 172 200 178 196 197 172 163 167 174 148 144 143 130 139 138 140 141 136 136 138 140 135 137 146 146 145
216 249 220 255 211 170 252 244 250 218 266 317 241 162 179 213 231 244 246 241 190 201 206 257 210 210 194 181 187 174 158 174 155 146 141 130 143 144 142 151 148 144 151 146 153 151 151 149 130
225 242 225 242 254 251 258 251 262 248 245 193 160 140 195 216 237 256 298 145 179 186 202 212 214 240 225 199 205 181 168 159 175 158 149 135 142 154 149 149 150 153 150 154 153 149 158 134 141
201 227 256 272 264 242 256 266 189 269 204 167 171 210 219 240 288 276 258 232 173 165 206 227 220 283 238 226 200 200 170 160 159 157 152 139 152 156 157 153 154 155 154 156 154 153 155 146 139
237 273 284 239 255 251 218 234 225 273 168 194 185 221 244 245 293 287 311 63 186 164 187 194 108 1 349 287 196 164 159 151 148 145 147 142 155 158 157 156 154 156 150 150 144 141 148 146 146
252 212 262 171 178 258 206 275 269 346 189 211 197 207 234 252 257 280 302 151 169 156 176 138 87 50 41 25 106 125 135 139 138 140 138 156 152 155 154 162 159 158 161 153 146 150 160 144 158
223 250 236 297 262 140 225 289 263 180 217 228 209 207 226 249 253 273 257 182 173 161 146 130 114 82 70 57 73 110 117 118 122 130 129 148 152 155 152 155 158 157 161 154 144 155 163 164 166
204 219 226 240 190 120 282 273 288 262 229 236 215 207 216 237 244 239 194 173 152 148 120 106 108 117 94 80 75 105 110 107 116 150 153 151 152 148 148 148 150 159 165 172 147 161 170 176 162
197 221 228 237 225 268 262 281 293 303 242 234 224 213 208 227 232 211 190 164 148 152 138 136 137 138 130 127 113 115 130 127 138 154 140 149 156 145 147 148 152 163 183 181 151 160 169 156 168
233 246 252 282 289 227 285 295 294 283 263 223 212 217 213 204 210 210 204 177 163 162 162 154 145 151 142 148 117 99 118 116 118 141 156 155 151 136 142 155 163 179 178 177 169 172 156 159 186
224 233 247 251 291 267 272 265 282 300 276 213 208 220 215 192 198 205 196 192 166 167 173 158 158 154 146 141 120 95 80 90 143 161 151 147 143 148 144 185 166 187 181 191 183 181 183 181 198
232 221 239 247 262 271 309 290 266 276 275 267 215 203 210 187 198 201 199 185 186 177 166 165 162 158 149 156 159 166 154 166 172 165 151 135 139 136 150 176 189 191 191 190 198 195 197 189 198
240 187 209 229 231 266 247 263 249 228 259 260 250 207 211 189 195 194 199 194 186 176 170 164 162 166 162 168 166 166 169 173 116 137 160 153 139 143 133 187 200 202 199 210 202 199 210 211 201
252 216 223 113 181 243 217 226 264 208 224 258 247 181 201 189 197 194 193 187 183 180 177 168 170 169 166 172 169 180 182 182 166 162 170 156 154 167 193 204 205 212 209 210 211 209 210 213 222
208 190 252 216 204 244 199 199 254 246 252 247 273 260 191 188 191 192 192 191 187 183 182 179 180 181 176 183 185 184 190 193 190 190 193 175 188 195 200 206 212 217 214 214 215 216 219 216 216
205 201 191 220 219 236 165 220 233 237 273 253 263 260 182 193 189 195 195 196 189 189 188 186 188 192 188 187 194 199 196 200 203 205 205 210 209 207 202 211 218 222 223 223 220 222 223 217 216
176 205 216 266 176 273 212 252 282 267 271 221 277 260 205 198 194 197 195 199 192 189 192 193 193 197 199 197 196 200 202 209 210 213 217 218 221 225 216 213 220 229 229 228 226 229 235 229 230
221 157 139 208 235 242 199 222 218 245 268 263 284 264 242 187 195 199 203 205 202 189 186 191 193 197 198 201 205 206 207 208 210 211 217 219 223 224 226 230 229 233 233 231 231 234 240 228 232
180 226 240 226 201 251 260 230 215 224 242 270 280 261 246 190 196 194 207 209 208 196 188 190 192 195 198 200 200 205 206 208 208 211 217 218 224 227 230 232 236 238 240 233 229 234 234 226 231
283 252 222 230 226 248 266 239 203 231 244 242 267 284 261 217 190 185 199 199 201 203 195 196 197 201 199 199 200 206 206 205 208 213 214 211 218 219 224 226 232 234 229 212 210 227 227 223 227